Thomson Majesty — 9HA2188 — position and weather

sailwx.info

Track history (hours):
 
Tides and Currents Weather Stations Pressure Air Temp Water Temp Dewpoint Dewpoint Depression Visibility Wind Speed Wind Dir Waves Ship Positions

Thomson Majesty

Last reported at 2016-Aug-30 20:31 UTC. Time now 2016-Aug-30 20:51 UTC.
Position N 39°33' E 002°38'.

Length 207 m; draft 6.2 m.

Type: Ship. MMSI: 248124000.

Date/timePositionNaut miles runAvg speedWind from/ knotsBaromVisibWave heightAir tempDewpointWater temp
2016-Aug-30 20:31N 39°33' E 002°38'0 0.0
2016-Aug-30 19:28N 39°33' E 002°38'0 0.0
2016-Aug-30 18:31N 39°33' E 002°38'0 0.0
2016-Aug-30 17:31N 39°33' E 002°38'0 0.0
2016-Aug-30 16:31N 39°33' E 002°38'0 0.0
2016-Aug-30 15:31N 39°33' E 002°38'0 0.0
2016-Aug-30 14:28N 39°33' E 002°38'0 0.0
2016-Aug-30 13:31N 39°33' E 002°38'0 0.0
2016-Aug-30 12:31N 39°33' E 002°38'0 0.0
2016-Aug-30 11:31N 39°33' E 002°38'0 0.0
2016-Aug-30 10:31N 39°33' E 002°38'0 0.0
2016-Aug-30 09:31N 39°33' E 002°38'0 0.0
2016-Aug-30 08:31N 39°33' E 002°38'0 0.0
2016-Aug-30 07:31N 39°33' E 002°38'0 0.0
2016-Aug-30 06:31N 39°33' E 002°38'0 0.0
2016-Aug-30 05:31N 39°33' E 002°38'0 0.0
2016-Aug-30 04:31N 39°33' E 002°38'0 0.0
2016-Aug-30 03:33N 39°33' E 002°38'8 8.0
2016-Aug-30 02:33N 39°26' E 002°34'1414.2
2016-Aug-30 01:34N 39°31' E 002°17'1111.2
2016-Aug-30 00:32N 39°42' E 002°14'1212.0
2016-Aug-29 23:33N 39°54' E 002°14'1211.8
2016-Aug-29 22:33N 40°06' E 002°13'1211.9
2016-Aug-29 21:33N 40°18' E 002°13'1212.0
2016-Aug-29 20:33N 40°30' E 002°13'1212.1
2016-Aug-29 19:33N 40°42' E 002°14'1312.5
2016-Aug-29 18:33N 40°54' E 002°13'1313.0
2016-Aug-29 17:34N 41°07' E 002°13'1212.3
2016-Aug-29 16:33N 41°19' E 002°13'3 1.5
2016-Aug-29 14:22N 41°22' E 002°11'0 0.0
2016-Aug-29 05:33N 41°22' E 002°11'8 7.9
2016-Aug-29 04:33N 41°22' E 002°21'1615.6
2016-Aug-29 03:33N 41°29' E 002°40'1615.7
2016-Aug-29 02:33N 41°37' E 002°58'1312.9
2016-Aug-29 01:33N 41°43' E 003°13'1313.1
2016-Aug-29 00:33N 41°51' E 003°27'1313.4
2016-Aug-28 23:33N 42°01' E 003°39'1412.9
2016-Aug-28 22:30N 42°11' E 003°51'2512.9
2016-Aug-28 20:33N 42°30' E 004°15'1313.4
2016-Aug-28 19:33N 42°40' E 004°26'1513.4
2016-Aug-28 18:28N 42°51' E 004°39'1512.9
2016-Aug-28 17:19N 43°02' E 004°53'1012.6
2016-Aug-28 16:33N 43°09' E 005°02'1312.5
2016-Aug-28 15:33N 43°18' E 005°14'5 4.8
2016-Aug-28 14:27N 43°21' E 005°20'0 0.0
2016-Aug-28 13:27N 43°21' E 005°20'0 0.0
2016-Aug-28 12:15N 43°21' E 005°20'0 0.0
2016-Aug-28 11:30N 43°21' E 005°20'0 0.0
2016-Aug-28 10:30N 43°21' E 005°20'0 0.0
2016-Aug-28 09:33N 43°21' E 005°20'0 0.0
2016-Aug-28 08:33N 43°21' E 005°20'0 0.0
2016-Aug-28 07:33N 43°21' E 005°20'0 0.0
2016-Aug-28 06:33N 43°21' E 005°20'0 0.1
2016-Aug-28 05:33N 43°21' E 005°20'1010.1
2016-Aug-28 04:33N 43°13' E 005°11'1514.8
2016-Aug-28 03:33N 43°04' E 005°27'1716.2
2016-Aug-28 02:30N 42°58' E 005°49'1212.9
2016-Aug-28 01:33N 42°53' E 006°04'1312.8
2016-Aug-28 00:33N 42°51' E 006°21'1312.9
2016-Aug-27 23:33N 42°49' E 006°39'1212.3
2016-Aug-27 22:33N 42°48' E 006°55'1212.1
2016-Aug-27 21:33N 42°46' E 007°12'1212.2
2016-Aug-27 20:33N 42°45' E 007°29'1212.2
2016-Aug-27 19:33N 42°44' E 007°45'1212.4
2016-Aug-27 18:33N 42°42' E 008°01'1312.8
2016-Aug-27 17:33N 42°39' E 008°18'1615.5
2016-Aug-27 16:33N 42°37' E 008°39'6 5.9
2016-Aug-27 15:33N 42°34' E 008°46'0 0.1
2016-Aug-27 14:33N 42°34' E 008°46'0 0.0
2016-Aug-27 13:33N 42°34' E 008°46'0 0.0
2016-Aug-27 12:30N 42°34' E 008°46'0 0.0
2016-Aug-27 11:33N 42°34' E 008°46'0 0.1
2016-Aug-27 10:33N 42°34' E 008°46'0 0.1
2016-Aug-27 09:33N 42°34' E 008°46'0 0.0
2016-Aug-27 08:33N 42°34' E 008°46'0 0.1
2016-Aug-27 07:33N 42°34' E 008°46'0 0.0
2016-Aug-27 06:30N 42°34' E 008°46'0 0.1
2016-Aug-27 04:33N 42°34' E 008°46'1010.0
2016-Aug-27 03:33N 42°43' E 008°51'10 9.7
2016-Aug-27 02:33N 42°53' E 008°56'10 9.4
2016-Aug-27 01:31N 43°02' E 008°60'9 9.3
2016-Aug-27 00:34N 43°10' E 009°05'1010.2
2016-Aug-26 23:33N 43°17' E 009°16'1010.1
2016-Aug-26 22:34N 43°24' E 009°26'1010.1
2016-Aug-26 21:34N 43°30' E 009°36'1010.1
2016-Aug-26 20:33N 43°31' E 009°50'10 9.6
2016-Aug-26 19:33N 43°31' E 010°03'9 9.4
2016-Aug-26 18:33N 43°32' E 010°16'2 1.5
2016-Aug-26 17:32N 43°33' E 010°18'0 0.0
2016-Aug-26 16:29N 43°33' E 010°18'0 0.0
2016-Aug-26 15:32N 43°33' E 010°18'0 0.0
2016-Aug-26 14:32N 43°33' E 010°18'0 0.0
2016-Aug-26 13:32N 43°33' E 010°18'0 0.0
2016-Aug-26 12:32N 43°33' E 010°18'0 0.0
2016-Aug-26 11:32N 43°33' E 010°18'0 0.0
2016-Aug-26 10:32N 43°33' E 010°18'0 0.0
2016-Aug-26 09:32N 43°33' E 010°18'0 0.0
2016-Aug-26 08:32N 43°33' E 010°18'0 0.0
2016-Aug-26 07:32N 43°33' E 010°18'0 0.0
2016-Aug-26 06:32N 43°33' E 010°18'0 0.1
2016-Aug-26 04:33N 43°33' E 010°18'7 7.1
2016-Aug-26 03:34N 43°30' E 010°09'1211.8
2016-Aug-26 02:33N 43°31' E 009°52'1111.2
2016-Aug-26 01:33N 43°32' E 009°37'1111.3
2016-Aug-26 00:33N 43°33' E 009°22'1111.4
2016-Aug-25 23:33N 43°34' E 009°06'1110.9
2016-Aug-25 22:33N 43°34' E 008°51'1110.9
2016-Aug-25 21:33N 43°35' E 008°36'1110.9
2016-Aug-25 20:33N 43°36' E 008°21'1111.0
2016-Aug-25 19:33N 43°37' E 008°06'1111.0
2016-Aug-25 18:33N 43°38' E 007°51'1111.5
2016-Aug-25 17:33N 43°39' E 007°35'1211.5
2016-Aug-25 16:33N 43°41' E 007°19'1 1.2
2016-Aug-25 15:32N 43°42' E 007°19'0 0.0
2016-Aug-25 14:32N 43°42' E 007°19'0 0.0
2016-Aug-25 13:26N 43°42' E 007°19'0 0.0
2016-Aug-25 12:32N 43°42' E 007°19'0 0.0
2016-Aug-25 11:32N 43°42' E 007°19'0 0.0
2016-Aug-25 10:26N 43°42' E 007°19'0 0.0
2016-Aug-25 08:26N 43°42' E 007°19'0 0.0
2016-Aug-25 07:32N 43°42' E 007°19'0 0.0
2016-Aug-25 06:32N 43°42' E 007°19'0 0.0
2016-Aug-25 04:32N 43°42' E 007°19'1 1.0
2016-Aug-25 03:33N 43°41' E 007°19'1312.8
2016-Aug-25 02:33N 43°29' E 007°12'1111.3
2016-Aug-25 01:33N 43°21' E 007°01'1111.2
2016-Aug-25 00:32N 43°12' E 006°51'4511.3
2016-Aug-24 20:33N 42°40' E 006°07'1211.7
2016-Aug-24 19:33N 42°32' E 005°56'1211.6
2016-Aug-24 18:34N 42°24' E 005°44'1212.0
2016-Aug-24 17:34N 42°16' E 005°33'1312.6
2016-Aug-24 16:33N 42°06' E 005°22'1312.6
2016-Aug-24 15:32N 41°57' E 005°10'1212.3
2016-Aug-24 14:33N 41°48' E 004°59'1212.4
2016-Aug-24 13:33N 41°39' E 004°47'1312.7
2016-Aug-24 12:34N 41°30' E 004°35'1312.6
2016-Aug-24 11:34N 41°21' E 004°23'1212.5
2016-Aug-24 10:34N 41°12' E 004°12'2812.7
2016-Aug-24 08:20N 40°52' E 003°45'912.0
2016-Aug-24 07:32N 40°45' E 003°37'1212.3
2016-Aug-24 06:33N 40°37' E 003°26'2512.4
2016-Aug-24 04:33N 40°19' E 003°03'1312.8
2016-Aug-24 03:33N 40°10' E 002°51'1313.1
2016-Aug-24 02:33N 40°00' E 002°39'1212.5
2016-Aug-24 01:33N 39°52' E 002°28'1312.7
2016-Aug-24 00:33N 39°43' E 002°16'1110.4
2016-Aug-23 23:31N 39°32' E 002°12'1212.4
2016-Aug-23 22:33N 39°25' E 002°24'1111.1
2016-Aug-23 21:33N 39°30' E 002°37'3 3.4
2016-Aug-23 20:32N 39°33' E 002°38'0 0.0
2016-Aug-23 19:32N 39°33' E 002°38'0 0.0
2016-Aug-23 18:32N 39°33' E 002°38'0 0.0
2016-Aug-23 17:32N 39°33' E 002°38'0 0.0
2016-Aug-23 16:29N 39°33' E 002°38'0 0.0
2016-Aug-23 15:32N 39°33' E 002°38'0 0.0
2016-Aug-23 14:29N 39°33' E 002°38'0 0.0
2016-Aug-23 13:32N 39°33' E 002°38'0 0.0
2016-Aug-23 12:32N 39°33' E 002°38'0 0.0
2016-Aug-23 11:32N 39°33' E 002°38'0 0.0
2016-Aug-23 10:32N 39°33' E 002°38'0 0.0
2016-Aug-23 09:32N 39°33' E 002°38'0 0.0
2016-Aug-23 08:32N 39°33' E 002°38'0 0.0
2016-Aug-23 07:32N 39°33' E 002°38'0 0.0
2016-Aug-23 06:32N 39°33' E 002°38'0 0.0
2016-Aug-23 05:32N 39°33' E 002°38'0 0.0
2016-Aug-23 04:32N 39°33' E 002°38'0 0.0
2016-Aug-23 03:33N 39°33' E 002°38'9 9.3
2016-Aug-23 02:33N 39°24' E 002°40'1212.0
2016-Aug-23 01:33N 39°13' E 002°46'1410.1
2016-Aug-23 00:13N 39°06' E 003°01'812.0
2016-Aug-22 23:33N 39°10' E 003°09'1211.9
2016-Aug-22 22:33N 39°16' E 003°22'1211.7
2016-Aug-22 21:33N 39°23' E 003°35'1211.8
2016-Aug-22 20:33N 39°29' E 003°48'1211.9
2016-Aug-22 19:33N 39°36' E 004°01'276 6.6
2016-Aug-21 01:34N 41°25' E 009°33'1616.2
2016-Aug-21 00:33N 41°32' E 009°53'1615.7
2016-Aug-20 23:33N 41°39' E 010°12'1212.3
2016-Aug-20 22:33N 41°43' E 010°28'1212.4
2016-Aug-20 21:34N 41°47' E 010°43'1212.3
2016-Aug-20 20:33N 41°52' E 010°58'  
Track history (hours):
 
Tides and Currents Weather Stations Pressure Air Temp Water Temp Dewpoint Dewpoint Depression Visibility Wind Speed Wind Dir Waves Ship Positions

Thomson Majesty

Last reported at 2016-Aug-30 20:31 UTC. Time now 2016-Aug-30 20:51 UTC.
Position N 39°33' E 002°38'.

Length 207 m; draft 6.2 m.

Type: Ship. MMSI: 248124000.

Date/timePositionNaut miles runAvg speedWind from/ knotsBaromVisibWave heightAir tempDewpointWater temp
2016-Aug-30 20:31N 39°33' E 002°38'0 0.0
2016-Aug-30 19:28N 39°33' E 002°38'0 0.0
2016-Aug-30 18:31N 39°33' E 002°38'0 0.0
2016-Aug-30 17:31N 39°33' E 002°38'0 0.0
2016-Aug-30 16:31N 39°33' E 002°38'0 0.0
2016-Aug-30 15:31N 39°33' E 002°38'0 0.0
2016-Aug-30 14:28N 39°33' E 002°38'0 0.0
2016-Aug-30 13:31N 39°33' E 002°38'0 0.0
2016-Aug-30 12:31N 39°33' E 002°38'0 0.0
2016-Aug-30 11:31N 39°33' E 002°38'0 0.0
2016-Aug-30 10:31N 39°33' E 002°38'0 0.0
2016-Aug-30 09:31N 39°33' E 002°38'0 0.0
2016-Aug-30 08:31N 39°33' E 002°38'0 0.0
2016-Aug-30 07:31N 39°33' E 002°38'0 0.0
2016-Aug-30 06:31N 39°33' E 002°38'0 0.0
2016-Aug-30 05:31N 39°33' E 002°38'0 0.0
2016-Aug-30 04:31N 39°33' E 002°38'0 0.0
2016-Aug-30 03:33N 39°33' E 002°38'8 8.0
2016-Aug-30 02:33N 39°26' E 002°34'1414.2
2016-Aug-30 01:34N 39°31' E 002°17'1111.2
2016-Aug-30 00:32N 39°42' E 002°14'1212.0
2016-Aug-29 23:33N 39°54' E 002°14'1211.8
2016-Aug-29 22:33N 40°06' E 002°13'1211.9
2016-Aug-29 21:33N 40°18' E 002°13'1212.0
2016-Aug-29 20:33N 40°30' E 002°13'1212.1
2016-Aug-29 19:33N 40°42' E 002°14'1312.5
2016-Aug-29 18:33N 40°54' E 002°13'1313.0
2016-Aug-29 17:34N 41°07' E 002°13'1212.3
2016-Aug-29 16:33N 41°19' E 002°13'3 1.5
2016-Aug-29 14:22N 41°22' E 002°11'0 0.0
2016-Aug-29 05:33N 41°22' E 002°11'8 7.9
2016-Aug-29 04:33N 41°22' E 002°21'1615.6
2016-Aug-29 03:33N 41°29' E 002°40'1615.7
2016-Aug-29 02:33N 41°37' E 002°58'1312.9
2016-Aug-29 01:33N 41°43' E 003°13'1313.1
2016-Aug-29 00:33N 41°51' E 003°27'1313.4
2016-Aug-28 23:33N 42°01' E 003°39'1412.9
2016-Aug-28 22:30N 42°11' E 003°51'2512.9
2016-Aug-28 20:33N 42°30' E 004°15'1313.4
2016-Aug-28 19:33N 42°40' E 004°26'1513.4
2016-Aug-28 18:28N 42°51' E 004°39'1512.9
2016-Aug-28 17:19N 43°02' E 004°53'1012.6
2016-Aug-28 16:33N 43°09' E 005°02'1312.5
2016-Aug-28 15:33N 43°18' E 005°14'5 4.8
2016-Aug-28 14:27N 43°21' E 005°20'0 0.0
2016-Aug-28 13:27N 43°21' E 005°20'0 0.0
2016-Aug-28 12:15N 43°21' E 005°20'0 0.0
2016-Aug-28 11:30N 43°21' E 005°20'0 0.0
2016-Aug-28 10:30N 43°21' E 005°20'0 0.0
2016-Aug-28 09:33N 43°21' E 005°20'0 0.0
2016-Aug-28 08:33N 43°21' E 005°20'0 0.0
2016-Aug-28 07:33N 43°21' E 005°20'0 0.0
2016-Aug-28 06:33N 43°21' E 005°20'0 0.1
2016-Aug-28 05:33N 43°21' E 005°20'1010.1
2016-Aug-28 04:33N 43°13' E 005°11'1514.8
2016-Aug-28 03:33N 43°04' E 005°27'1716.2
2016-Aug-28 02:30N 42°58' E 005°49'1212.9
2016-Aug-28 01:33N 42°53' E 006°04'1312.8
2016-Aug-28 00:33N 42°51' E 006°21'1312.9
2016-Aug-27 23:33N 42°49' E 006°39'1212.3
2016-Aug-27 22:33N 42°48' E 006°55'1212.1
2016-Aug-27 21:33N 42°46' E 007°12'1212.2
2016-Aug-27 20:33N 42°45' E 007°29'1212.2
2016-Aug-27 19:33N 42°44' E 007°45'1212.4
2016-Aug-27 18:33N 42°42' E 008°01'1312.8
2016-Aug-27 17:33N 42°39' E 008°18'1615.5
2016-Aug-27 16:33N 42°37' E 008°39'6 5.9
2016-Aug-27 15:33N 42°34' E 008°46'0 0.1
2016-Aug-27 14:33N 42°34' E 008°46'0 0.0
2016-Aug-27 13:33N 42°34' E 008°46'0 0.0
2016-Aug-27 12:30N 42°34' E 008°46'0 0.0
2016-Aug-27 11:33N 42°34' E 008°46'0 0.1
2016-Aug-27 10:33N 42°34' E 008°46'0 0.1
2016-Aug-27 09:33N 42°34' E 008°46'0 0.0
2016-Aug-27 08:33N 42°34' E 008°46'0 0.1
2016-Aug-27 07:33N 42°34' E 008°46'0 0.0
2016-Aug-27 06:30N 42°34' E 008°46'0 0.1
2016-Aug-27 04:33N 42°34' E 008°46'1010.0
2016-Aug-27 03:33N 42°43' E 008°51'10 9.7
2016-Aug-27 02:33N 42°53' E 008°56'10 9.4
2016-Aug-27 01:31N 43°02' E 008°60'9 9.3
2016-Aug-27 00:34N 43°10' E 009°05'1010.2
2016-Aug-26 23:33N 43°17' E 009°16'1010.1
2016-Aug-26 22:34N 43°24' E 009°26'1010.1
2016-Aug-26 21:34N 43°30' E 009°36'1010.1
2016-Aug-26 20:33N 43°31' E 009°50'10 9.6
2016-Aug-26 19:33N 43°31' E 010°03'9 9.4
2016-Aug-26 18:33N 43°32' E 010°16'2 1.5
2016-Aug-26 17:32N 43°33' E 010°18'0 0.0
2016-Aug-26 16:29N 43°33' E 010°18'0 0.0
2016-Aug-26 15:32N 43°33' E 010°18'0 0.0
2016-Aug-26 14:32N 43°33' E 010°18'0 0.0
2016-Aug-26 13:32N 43°33' E 010°18'0 0.0
2016-Aug-26 12:32N 43°33' E 010°18'0 0.0
2016-Aug-26 11:32N 43°33' E 010°18'0 0.0
2016-Aug-26 10:32N 43°33' E 010°18'0 0.0
2016-Aug-26 09:32N 43°33' E 010°18'0 0.0
2016-Aug-26 08:32N 43°33' E 010°18'0 0.0
2016-Aug-26 07:32N 43°33' E 010°18'0 0.0
2016-Aug-26 06:32N 43°33' E 010°18'0 0.1
2016-Aug-26 04:33N 43°33' E 010°18'7 7.1
2016-Aug-26 03:34N 43°30' E 010°09'1211.8
2016-Aug-26 02:33N 43°31' E 009°52'1111.2
2016-Aug-26 01:33N 43°32' E 009°37'1111.3
2016-Aug-26 00:33N 43°33' E 009°22'1111.4
2016-Aug-25 23:33N 43°34' E 009°06'1110.9
2016-Aug-25 22:33N 43°34' E 008°51'1110.9
2016-Aug-25 21:33N 43°35' E 008°36'1110.9
2016-Aug-25 20:33N 43°36' E 008°21'1111.0
2016-Aug-25 19:33N 43°37' E 008°06'1111.0
2016-Aug-25 18:33N 43°38' E 007°51'1111.5
2016-Aug-25 17:33N 43°39' E 007°35'1211.5
2016-Aug-25 16:33N 43°41' E 007°19'1 1.2
2016-Aug-25 15:32N 43°42' E 007°19'0 0.0
2016-Aug-25 14:32N 43°42' E 007°19'0 0.0
2016-Aug-25 13:26N 43°42' E 007°19'0 0.0
2016-Aug-25 12:32N 43°42' E 007°19'0 0.0
2016-Aug-25 11:32N 43°42' E 007°19'0 0.0
2016-Aug-25 10:26N 43°42' E 007°19'0 0.0
2016-Aug-25 08:26N 43°42' E 007°19'0 0.0
2016-Aug-25 07:32N 43°42' E 007°19'0 0.0
2016-Aug-25 06:32N 43°42' E 007°19'0 0.0
2016-Aug-25 04:32N 43°42' E 007°19'1 1.0
2016-Aug-25 03:33N 43°41' E 007°19'1312.8
2016-Aug-25 02:33N 43°29' E 007°12'1111.3
2016-Aug-25 01:33N 43°21' E 007°01'1111.2
2016-Aug-25 00:32N 43°12' E 006°51'4511.3
2016-Aug-24 20:33N 42°40' E 006°07'1211.7
2016-Aug-24 19:33N 42°32' E 005°56'1211.6
2016-Aug-24 18:34N 42°24' E 005°44'1212.0
2016-Aug-24 17:34N 42°16' E 005°33'1312.6
2016-Aug-24 16:33N 42°06' E 005°22'1312.6
2016-Aug-24 15:32N 41°57' E 005°10'1212.3
2016-Aug-24 14:33N 41°48' E 004°59'1212.4
2016-Aug-24 13:33N 41°39' E 004°47'1312.7
2016-Aug-24 12:34N 41°30' E 004°35'1312.6
2016-Aug-24 11:34N 41°21' E 004°23'1212.5
2016-Aug-24 10:34N 41°12' E 004°12'2812.7
2016-Aug-24 08:20N 40°52' E 003°45'912.0
2016-Aug-24 07:32N 40°45' E 003°37'1212.3
2016-Aug-24 06:33N 40°37' E 003°26'2512.4
2016-Aug-24 04:33N 40°19' E 003°03'1312.8
2016-Aug-24 03:33N 40°10' E 002°51'1313.1
2016-Aug-24 02:33N 40°00' E 002°39'1212.5
2016-Aug-24 01:33N 39°52' E 002°28'1312.7
2016-Aug-24 00:33N 39°43' E 002°16'1110.4
2016-Aug-23 23:31N 39°32' E 002°12'1212.4
2016-Aug-23 22:33N 39°25' E 002°24'1111.1
2016-Aug-23 21:33N 39°30' E 002°37'3 3.4
2016-Aug-23 20:32N 39°33' E 002°38'0 0.0
2016-Aug-23 19:32N 39°33' E 002°38'0 0.0
2016-Aug-23 18:32N 39°33' E 002°38'0 0.0
2016-Aug-23 17:32N 39°33' E 002°38'0 0.0
2016-Aug-23 16:29N 39°33' E 002°38'0 0.0
2016-Aug-23 15:32N 39°33' E 002°38'0 0.0
2016-Aug-23 14:29N 39°33' E 002°38'0 0.0
2016-Aug-23 13:32N 39°33' E 002°38'0 0.0
2016-Aug-23 12:32N 39°33' E 002°38'0 0.0
2016-Aug-23 11:32N 39°33' E 002°38'0 0.0
2016-Aug-23 10:32N 39°33' E 002°38'0 0.0
2016-Aug-23 09:32N 39°33' E 002°38'0 0.0
2016-Aug-23 08:32N 39°33' E 002°38'0 0.0
2016-Aug-23 07:32N 39°33' E 002°38'0 0.0
2016-Aug-23 06:32N 39°33' E 002°38'0 0.0
2016-Aug-23 05:32N 39°33' E 002°38'0 0.0
2016-Aug-23 04:32N 39°33' E 002°38'0 0.0
2016-Aug-23 03:33N 39°33' E 002°38'9 9.3
2016-Aug-23 02:33N 39°24' E 002°40'1212.0
2016-Aug-23 01:33N 39°13' E 002°46'1410.1
2016-Aug-23 00:13N 39°06' E 003°01'812.0
2016-Aug-22 23:33N 39°10' E 003°09'1211.9
2016-Aug-22 22:33N 39°16' E 003°22'1211.7
2016-Aug-22 21:33N 39°23' E 003°35'1211.8
2016-Aug-22 20:33N 39°29' E 003°48'1211.9
2016-Aug-22 19:33N 39°36' E 004°01'276 6.6
2016-Aug-21 01:34N 41°25' E 009°33'1616.2
2016-Aug-21 00:33N 41°32' E 009°53'1615.7
2016-Aug-20 23:33N 41°39' E 010°12'1212.3
2016-Aug-20 22:33N 41°43' E 010°28'1212.4
2016-Aug-20 21:34N 41°47' E 010°43'1212.3
2016-Aug-20 20:33N 41°52' E 010°58'  

Dump ship's entire track history